Presure
120 186 86 133 175 167 94 115 91 94 95 93 92 94 146 157 150 90 93 91 93 154 97 116 101 100 117 116 97 102 96 103 94 103 94 102 99 117 109 110 102 103 107
177 168 131 91 86 92 88 81 77 93 87 97 110 93 86 131 129 149 126 107 89 90 91 93 97 150 99 92 88 89 96 111 96 107 100 98 118 108 107 106 98 111 101
186 178 124 178 157 83 90 93 86 87 118 82 98 94 96 94 108 91 142 113 174 165 153 161 99 104 159 95 96 97 99 106 95 99 99 109 105 102 102 107 101 117 116
109 144 181 181 181 125 154 166 83 128 119 121 121 95 88 125 164 167 115 156 143 163 146 173 148 139 120 153 143 96 120 107 101 106 108 103 106 120 112 117 133 122 104
109 120 148 145 183 165 86 120 120 120 120 123 129 133 126 121 126 78 85 85 115 153 160 173 172 174 136 168 151 156 146 140 135 163 108 116 121 109 109 109 106 121 125
146 153 98 153 155 170 136 159 132 122 118 121 163 79 122 121 126 77 139 164 78 89 93 128 161 173 173 177 111 155 142 157 145 142 143 152 149 143 142 146 143 144 132
231 217 239 91 154 140 154 175 163 129 117 131 126 138 134 121 110 160 148 126 127 128 140 144 131 148 156 175 157 176 116 166 143 148 168 150 138 137 152 157 176 177 172
194 163 156 159 174 153 154 152 159 133 186 183 126 159 170 155 152 154 124 156 159 133 152 132 138 137 150 123 168 169 167 160 108 165 135 144 161 172 166 165 162 156 155
215 154 228 211 164 166 190 124 177 153 97 96 94 113 121 148 165 178 155 155 160 174 167 164 146 132 141 142 160 142 170 153 158 153 150 157 166 145 144 142 140 165 168
210 209 156 119 228 88 97 167 175 85 84 83 92 96 94 134 154 151 161 177 160 161 170 180 174 128 127 118 134 150 151 133 169 171 168 165 154 158 159 160 110 161 169
204 203 202 212 217 226 228 235 186 204 121 152 114 127 99 146 174 97 96 97 169 145 161 166 175 178 173 150 130 139 131 149 136 161 165 170 167 169 164 155 165 161 156
199 200 203 210 209 208 222 223 202 235 214 182 170 161 152 139 106 141 147 121 89 92 129 168 124 150 180 170 172 174 139 130 154 140 164 157 136 155 167 163 160 150 118
193 187 193 193 202 210 209 222 225 197 185 184 186 180 178 166 164 165 159 142 146 155 149 154 154 110 140 151 154 173 166 165 160 158 161 138 145 150 144 141 168 169 163
184 186 185 198 202 193 199 209 210 205 225 192 186 183 187 181 177 176 136 166 163 158 157 160 159 89 94 120 85 147 179 175 167 163 123 157 146 140 140 148 144 135 153
178 189 197 185 186 181 198 182 196 205 216 224 223 205 192 195 189 179 173 173 168 167 165 171 169 157 135 140 90 164 97 101 137 169 167 168 163 146 167 138 138 136 137
170 176 179 189 162 167 167 197 171 168 163 179 218 224 224 209 196 190 188 182 176 173 172 174 174 174 171 168 187 176 169 167 139 142 174 160 165 168 172 167 157 141 136
163 187 197 152 154 153 152 187 194 191 201 198 198 202 210 223 225 217 211 196 189 185 182 178 173 172 176 180 173 168 165 180 179 92 161 157 185 160 163 171 172 173 166
259 152 158 157 149 146 144 144 179 166 168 184 203 199 188 201 195 192 218 221 222 208 199 190 185 182 182 181 176 179 178 176 170 172 168 166 162 142 158 159 154 149 131
218 180 147 148 147 157 155 144 146 142 135 191 186 157 155 182 190 171 205 177 207 214 217 220 134 199 168 188 185 183 184 182 180 173 170 167 172 171 153 164 136 164 167
255 252 142 155 150 142 147 137 144 144 150 159 183 177 161 186 185 134 187 193 203 208 188 210 219 224 211 202 196 166 141 179 190 183 178 179 175 173 171 168 165 160 160
239 193 212 229 148 141 141 138 144 147 149 146 139 138 136 142 147 153 164 203 163 134 143 186 189 133 212 186 214 204 195 193 187 183 164 187 182 176 177 181 174 170 172
255 256 254 258 226 246 150 136 138 144 148 134 125 129 130 141 132 145 141 134 134 138 147 133 138 188 187 130 175 203 163 198 199 193 200 172 185 138 136 173 184 171 172
248 249 249 201 247 258 239 263 248 145 138 137 134 140 147 146 126 138 136 135 142 91 134 123 138 130 128 136 130 185 178 210 104 200 198 129 196 160 184 193 146 186 176
247 246 248 250 247 202 257 272 270 232 153 128 135 139 144 149 121 122 130 122 139 98 109 129 135 138 128 142 117 137 143 109 175 137 209 200 152 191 202 172 190 190 140
252 244 249 260 136 256 275 280 280 282 280 284 239 141 149 150 135 132 138 192 136 140 141 143 138 143 128 139 142 129 140 142 133 192 178 176 170 175 186 198 155 167 145
259 260 254 258 259 267 264 277 280 271 283 273 280 252 290 214 142 141 142 141 136 141 135 130 135 129 140 120 132 101 143 138 141 125 185 193 141 182 161 178 166 187 199
Wind_Speed
35 37 27 28 30 29 23 23 18 18 19 17 16 16 26 29 28 15 16 15 14 31 14 19 15 14 19 22 11 11 9 10 9 11 9 9 9 18 13 12 6 8 11
38 38 37 26 23 23 23 21 19 23 21 26 24 18 18 26 29 30 29 23 17 16 14 15 15 32 15 12 11 11 11 18 12 16 12 12 21 15 13 12 10 16 10
45 39 40 37 38 24 28 30 25 24 38 20 27 23 22 21 24 20 31 29 30 31 30 36 19 19 36 14 15 15 17 19 15 15 14 18 17 16 16 16 15 22 23
43 44 42 41 39 41 39 40 25 40 38 40 38 27 19 33 37 35 29 36 34 35 31 34 31 33 30 38 36 18 27 22 20 22 20 19 20 26 23 24 28 27 19
45 46 43 44 43 45 30 46 44 43 42 43 44 40 40 34 36 16 19 18 25 36 36 34 36 36 28 39 38 40 39 33 34 40 25 28 30 23 22 23 22 28 31
45 45 45 44 43 41 51 45 50 47 45 46 44 23 41 38 39 14 39 40 17 22 23 32 38 36 38 37 27 41 40 38 39 38 37 37 36 36 36 35 34 34 34
42 44 41 43 45 44 45 44 46 46 48 49 49 50 45 41 32 48 47 41 40 39 40 39 36 37 37 37 43 39 30 38 41 41 43 39 38 38 39 40 41 40 40
45 51 51 50 50 49 49 49 48 41 49 52 52 49 51 48 49 49 42 48 49 43 45 42 42 41 42 34 41 41 40 41 31 39 35 40 41 43 43 42 39 38 39
41 48 41 46 53 52 53 45 51 52 40 39 36 39 44 53 51 54 53 51 49 50 49 49 46 43 43 43 45 41 42 41 44 44 42 42 40 42 41 39 37 40 41
44 44 54 30 43 28 44 55 53 34 35 33 39 39 36 46 54 53 52 55 51 49 51 51 52 46 44 39 43 46 44 40 44 43 44 45 46 44 44 43 32 42 41
46 47 48 47 46 46 50 51 50 64 46 54 49 53 42 56 58 39 37 35 53 48 50 49 53 54 55 51 45 45 43 45 42 45 45 43 45 45 46 46 45 44 43
47 48 48 49 50 51 50 53 57 58 67 61 60 61 61 51 44 55 55 43 33 35 45 54 41 48 60 55 53 54 48 46 48 45 48 46 43 45 48 48 47 44 36
49 48 51 51 52 52 54 54 56 63 62 62 63 61 64 64 63 63 61 55 55 57 54 54 54 39 48 51 52 57 53 52 52 51 50 47 47 47 46 44 50 49 47
51 53 53 54 55 54 56 57 59 55 62 66 64 64 66 66 67 68 53 66 65 61 60 60 59 36 38 46 28 51 61 59 55 53 43 52 50 49 48 48 45 43 47
54 56 59 58 58 55 60 58 60 62 63 65 69 70 68 70 70 69 69 70 69 67 66 67 66 59 52 50 37 60 39 39 48 57 58 58 56 52 56 50 48 47 46
57 59 60 62 56 56 57 64 58 57 56 60 68 71 74 77 73 70 72 72 72 72 70 71 70 69 66 65 66 65 64 62 52 49 62 57 59 60 60 59 57 53 50
61 66 68 58 57 55 54 64 66 66 68 68 68 68 71 73 75 79 80 76 75 76 76 75 73 71 73 72 68 65 63 67 67 31 61 58 68 59 58 62 62 62 62
72 62 64 63 59 58 57 56 65 61 62 67 70 70 68 72 71 71 77 80 82 83 83 80 80 78 78 77 72 70 72 69 67 68 66 64 63 54 62 61 61 61 53
75 67 63 64 63 65 65 61 61 59 57 71 71 61 60 68 71 63 76 67 80 81 83 85 48 85 67 83 81 78 76 74 74 70 70 67 69 68 64 66 53 66 65
80 79 67 67 69 65 65 61 64 63 64 65 72 72 63 74 73 51 73 76 78 80 74 82 85 87 89 89 87 68 46 75 85 77 76 75 74 72 72 72 71 70 69
81 83 82 80 73 70 69 66 67 67 66 64 61 59 58 57 58 57 62 80 60 50 50 76 77 48 84 75 93 92 87 91 76 76 69 83 81 78 77 78 76 75 76
81 84 83 85 86 81 77 69 68 69 70 62 56 58 59 61 58 59 56 54 53 53 55 50 51 78 75 48 70 84 63 87 90 95 89 75 85 53 53 75 82 77 77
82 83 85 87 85 85 86 82 82 76 67 65 64 66 66 65 57 62 60 59 60 41 54 51 53 49 46 50 47 78 73 88 39 94 93 56 92 68 82 91 61 86 79
86 87 87 87 87 84 85 85 82 79 80 61 69 69 69 68 60 59 61 53 61 48 47 53 53 52 49 53 47 49 50 46 77 50 94 94 65 88 96 78 88 89 57
91 89 90 92 74 90 91 90 82 71 73 80 85 75 76 75 66 66 67 74 63 63 63 62 53 58 49 51 56 47 48 52 51 88 85 85 79 84 90 100 69 76 59
94 94 92 93 93 92 90 89 83 69 72 79 83 83 84 81 74 73 71 69 66 68 62 55 59 51 60 51 47 41 57 49 54 50 84 92 64 89 76 79 74 87 95
Wind_Direction
228 258 240 239 236 238 235 224 231 235 237 236 225 221 228 224 227 216 213 220 222 215 212 223 222 225 231 236 244 247 232 245 234 257 247 258 254 268 269 280 256 269 280
257 251 230 241 230 232 231 220 230 234 221 238 231 233 215 235 229 229 232 236 227 232 224 224 224 232 232 227 227 230 253 250 251 260 257 257 254 261 262 265 251 278 267
258 255 233 243 238 230 236 238 225 235 242 229 233 237 230 234 233 216 231 243 223 224 224 219 236 230 231 241 243 238 247 257 256 259 260 263 264 261 259 268 261 271 274
235 245 250 247 242 235 233 230 233 236 240 243 242 245 235 236 236 234 239 232 235 226 233 225 232 231 245 234 240 250 245 248 252 255 254 257 260 258 266 268 268 269 265
244 243 241 241 245 241 242 239 238 237 239 243 246 242 246 242 240 239 235 235 233 236 232 227 228 232 238 231 236 237 244 246 251 247 254 257 258 260 261 263 264 270 272
239 238 247 234 233 236 238 227 238 241 242 245 232 241 246 244 247 259 239 236 243 242 243 241 229 231 233 236 244 234 249 241 246 250 252 253 255 258 261 265 267 269 272
251 247 245 248 235 237 229 231 225 236 242 240 242 246 241 248 244 239 241 243 246 247 242 239 241 233 233 235 236 241 247 245 250 247 249 254 256 259 260 263 263 265 266
247 244 243 242 243 236 235 231 229 235 226 226 247 234 233 237 239 242 248 241 239 246 240 248 242 243 241 242 237 239 243 244 252 248 252 254 254 255 257 259 263 268 270
247 246 243 242 244 241 241 238 235 230 236 242 243 239 244 243 236 240 240 243 241 240 240 240 243 248 245 247 242 249 241 242 245 249 249 249 255 258 259 263 267 265 266
247 245 246 251 241 250 246 241 240 244 242 247 243 242 243 237 242 247 242 240 243 245 242 240 243 249 248 249 250 248 248 254 245 247 248 250 252 252 255 259 265 263 267
251 248 246 243 241 240 239 237 238 236 243 237 239 243 245 244 237 245 244 243 246 243 243 245 243 244 244 247 250 250 252 252 255 251 252 252 254 258 259 258 261 262 263
255 253 253 249 244 242 239 239 240 237 238 236 236 236 240 240 249 246 246 243 246 244 245 246 246 242 245 248 249 249 251 253 254 255 254 256 259 258 259 261 263 265 276
250 250 251 251 250 245 241 240 239 240 240 238 237 236 236 238 240 241 243 247 247 247 248 248 246 250 248 246 246 250 252 251 254 255 256 256 257 260 261 262 263 265 266
247 249 249 248 248 247 247 243 241 239 238 242 241 238 237 237 237 238 244 243 245 246 247 247 247 258 259 250 261 248 250 253 252 254 260 257 257 259 261 263 264 264 266
246 246 246 246 246 243 244 240 244 242 242 240 239 241 242 241 239 239 241 242 245 247 247 246 247 247 249 249 261 251 263 261 253 254 257 258 258 260 260 263 263 263 264
246 247 246 246 241 241 239 245 241 242 240 240 242 241 241 242 244 242 241 240 244 247 247 249 249 249 248 248 249 249 251 253 256 254 254 255 259 262 263 261 262 264 264
240 250 248 240 242 242 242 244 243 245 243 242 243 243 243 242 241 243 244 243 243 243 245 248 251 253 252 250 249 251 251 251 252 249 254 254 256 259 261 264 265 265 268
256 239 240 240 238 238 238 239 244 243 243 245 243 242 243 243 243 243 241 243 243 243 245 245 248 250 252 253 255 251 251 251 253 255 256 256 256 257 261 260 261 262 266
253 248 241 241 240 240 239 239 239 237 236 243 242 240 241 242 242 241 243 242 244 244 243 242 249 247 251 252 254 256 254 254 254 255 256 258 257 257 259 260 262 264 264
264 261 240 245 242 242 241 240 239 240 239 239 241 241 244 241 243 241 243 243 243 243 244 245 244 243 245 248 251 252 255 253 250 255 258 257 257 258 258 258 261 263 264
263 255 253 258 241 243 243 243 242 241 241 240 239 241 243 244 245 246 246 243 246 244 245 245 246 250 245 247 247 249 251 253 258 255 258 257 257 259 260 259 261 261 263
263 263 263 264 255 258 241 245 246 244 242 240 245 245 245 242 245 245 245 246 247 248 249 247 249 248 248 253 252 248 251 250 253 254 253 255 257 264 265 260 261 260 263
260 260 260 255 259 262 256 260 253 245 245 245 246 244 243 242 247 245 245 245 248 246 247 248 247 247 249 254 255 250 252 248 262 250 255 263 255 260 257 255 266 259 262
261 260 261 261 259 253 260 264 260 248 244 250 248 247 246 245 246 252 249 251 249 249 250 246 249 248 250 254 255 254 258 258 252 262 250 252 258 255 255 256 256 258 269
261 261 262 264 249 263 265 266 262 259 253 251 244 247 246 245 245 247 248 247 251 250 254 256 251 257 246 256 261 250 254 256 259 249 253 257 260 260 257 256 262 261 269
265 265 265 265 265 266 265 266 265 256 256 250 248 246 243 244 247 247 247 247 250 252 254 258 258 255 261 246 258 252 266 257 261 259 251 249 260 254 263 258 260 257 258